SCP
-0 -0 -0 0 -0 -0 -0 -0 -0 -0 -0 -0 -0 -0 -0 -0 -0 -0 -0 -0 -0 -0 -0 -0 0 0 0 0 0 0 0 0 0 0 0 0 -0 -0 -0 -0 -0 -0 -0
-0 -0 -0 -0 -0 -0 -0 -0 -0 -0 -0 -0 -0 -0 -0 -0 -0 -0 -0 -0 -0 -0 0 0 0 0 0 0 0 0 0 0 0 0 0 0 0 0 0 0 -0 0 -0
0 -0 -0 -0 -0 -0 -0 -0 -0 -0 -0 -0 -0 -0 -0 -0 0 0 0 0 0 0 0 0 0 0 0 0 0 0 0 0 0 0 0 0 0 0 0 0 0 0 0
-0 0 0 -0 -0 -0 -0 -0 0 -0 -0 -0 -0 0 0 0 0 0 0 0 0 0 0 0 0 0 0 0 0 0 0 0 0 0 0 0 0 0 0 0 0 0 0
0 0 0 -0 0 0 -0 0 -0 -0 0 0 0 0 0 0 0 0 0 0 0 0 0 0 0 0 0 0 0 0 0 0 0 0 0 0 0 0 0 0 0 0 0
-0 0 0 0 0 0 0 -0 -0 -0 -0 -0 -0 -0 0 0 0 0 0 0 0 0 0 0 0 0 0 0 0 0 0 0 0 0 0 0 0 0 0 0 0 0 0
0 0 0 -0 -0 -0 0 0 0 0 0 0 -0 -0 -0 -0 0 0 0 0 0 0 0 0 0 0 0 0 0 0 0 0 0 0 0 0 0 0 0 0 0 0 0
0 0 0 0 -0 0 0 0 0 0 0 0 0 0 0 0 0 0 0 0 0 0 0 0 0 0 0 0 0 0 0 0 0 0 0 0 0 0 0 0 0 0 0
0 0 0 0 0 0 0 0 0 0 0 0 0 0 0 0 0 0 0 0 0 0 0 0 0 0 0 0 0 0 0 0 0 0 0 0 0 0 0 0 0 0 0
0 0 0 0 0 0 0 1 1 1 1 1 1 1 1 0 0 0 0 0 0 0 0 0 0 0 0 0 0 0 0 0 0 0 0 0 0 0 0 0 0 0 0
0 0 0 0 0 0 0 0 0 0 0 1 1 1 1 1 0 0 0 1 0 0 0 0 0 0 0 0 0 0 0 1 0 0 0 0 0 0 0 0 0 0 0
0 0 0 0 0 0 0 0 0 0 0 0 0 0 0 0 0 1 0 0 1 1 0 0 0 0 0 1 1 1 1 1 0 0 0 0 0 0 0 0 0 0 0
0 0 0 0 0 0 0 0 0 0 0 0 0 0 0 0 0 0 0 1 1 1 1 1 0 1 0 1 1 1 0 0 0 0 0 0 0 0 0 1 0 0 0
0 0 0 0 0 0 0 0 0 0 0 0 0 0 0 0 0 0 0 0 0 0 1 1 1 1 1 1 1 1 0 0 0 0 0 0 0 0 0 0 1 1 1
0 0 0 0 0 0 0 0 0 0 0 0 -0 -0 -0 0 0 0 0 0 0 0 1 1 1 1 1 1 1 1 1 0 0 0 0 0 0 0 0 0 0 0 1
0 0 0 0 -0 -0 -0 -0 -0 -0 -0 -0 -0 -0 -0 0 0 0 0 0 1 1 1 1 1 1 1 1 1 1 1 1 0 0 0 0 0 0 0 1 1 1 1
0 0 0 0 0 -0 -0 -0 -0 -0 -0 -0 -0 -0 -0 0 0 0 0 0 0 1 1 1 1 1 1 0 0 1 1 1 0 0 0 0 0 0 0 0 1 1 2
0 0 0 0 0 0 0 0 -0 -0 -0 -0 -0 -0 -0 0 0 0 0 0 0 0 1 1 1 1 1 1 1 1 1 0 0 0 0 0 0 0 0 0 0 0 1
0 0 0 0 0 0 0 0 -0 -0 -0 -0 -0 -0 -0 -0 0 0 0 0 0 0 1 1 1 1 1 1 1 1 1 0 0 0 0 0 0 0 0 0 0 0 0
0 0 0 0 0 0 0 0 0 0 0 -0 -0 -0 -0 -0 -0 0 0 0 0 0 0 2 2 1 2 2 1 1 0 0 0 0 0 0 0 0 0 0 0 0 0
0 0 0 0 0 0 0 0 0 0 0 -0 -0 0 0 0 0 0 0 0 0 0 0 1 2 2 1 0 0 0 0 0 0 0 0 0 0 0 0 0 0 0 0
0 0 0 0 0 0 0 0 0 0 0 0 0 0 0 0 0 0 0 0 0 0 0 0 0 0 0 1 0 0 0 0 0 0 0 0 0 0 0 0 0 0 0
0 0 0 0 0 0 0 0 0 0 0 0 0 0 0 0 0 0 0 0 0 0 0 0 0 0 0 0 0 1 0 0 0 0 0 0 0 0 0 0 0 0 0
0 0 0 0 0 0 0 0 0 0 0 0 0 0 0 0 0 0 0 0 0 -0 0 0 0 0 0 0 0 0 0 0 0 0 0 0 0 0 0 0 0 0 0
0 -0 0 0 0 0 0 0 0 0 0 0 0 0 0 0 0 0 0 0 0 0 0 0 0 0 0 0 0 0 0 0 0 0 0 0 0 0 0 0 0 0 0
0 0 0 0 0 0 0 0 0 0 0 0 0 0 0 0 0 0 0 0 0 0 0 0 0 0 0 0 0 0 0 1 0 0 0 0 0 0 0 0 0 0 0
Wind_Speed_500mb
24 17 15 12 9 6 6 2 1 4 4 3 3 4 5 6 7 8 12 14 15 18 21 22 25 26 21 17 18 15 11 7 4 3 4 6 9 9 8 5 2 2 3
22 20 17 14 9 6 3 2 1 2 4 5 3 1 1 2 3 6 9 11 16 19 22 22 25 25 20 17 15 11 6 4 5 6 8 11 13 13 11 6 2 3 3
19 19 19 14 11 7 4 4 4 2 2 4 6 6 5 5 5 8 9 12 15 19 21 22 24 27 23 20 18 16 12 9 8 9 11 15 18 19 17 11 5 4 7
14 18 16 14 9 7 6 5 7 7 7 6 5 6 8 8 8 9 11 13 16 19 21 22 24 27 27 25 23 22 19 17 15 14 15 18 22 25 23 19 14 13 13
5 9 15 10 7 8 7 7 8 8 9 9 9 8 8 10 10 12 13 15 17 20 22 24 26 27 27 26 26 25 23 21 19 19 19 21 25 29 30 28 24 24 23
15 6 7 8 6 5 5 4 6 6 7 8 9 10 11 12 13 14 16 19 20 22 23 26 28 28 28 28 28 27 26 25 26 26 25 26 29 31 34 35 32 34 34
5 12 10 7 4 1 4 7 8 9 9 10 10 12 14 16 16 17 18 21 25 26 27 27 29 32 32 32 30 30 29 28 28 28 27 29 31 34 39 41 39 35 37
11 9 6 4 2 3 8 11 13 13 14 14 14 16 18 19 19 22 23 24 27 30 31 31 32 33 33 34 34 34 33 33 34 34 31 34 34 35 39 46 43 42 41
21 15 8 6 1 10 12 14 15 16 17 19 20 21 23 25 26 28 30 31 32 33 34 34 34 35 35 34 34 35 35 37 41 40 36 35 36 39 40 46 49 48 44
11 9 6 3 8 14 16 16 17 23 23 23 22 24 28 29 33 34 37 38 37 39 40 38 36 34 36 36 35 35 36 38 41 41 39 38 36 39 44 45 49 53 50
13 16 13 8 19 23 25 23 25 24 27 31 30 29 33 35 38 36 38 42 42 43 44 43 42 37 34 37 39 38 38 40 40 40 40 39 39 37 39 39 41 47 53
24 23 18 15 15 24 30 28 26 27 27 31 36 38 43 45 45 44 43 44 46 47 47 46 41 39 38 37 30 30 33 34 35 34 31 32 38 36 32 34 41 49 51
24 22 18 18 21 22 18 21 25 28 30 32 36 44 49 51 52 52 49 47 47 48 48 50 48 45 39 35 30 30 30 27 25 29 33 31 29 27 29 31 32 35 39
20 20 23 32 29 28 28 28 30 32 34 36 41 46 49 52 56 59 57 53 52 48 49 52 52 51 47 44 40 38 37 35 28 31 35 34 31 30 35 36 33 32 35
27 34 34 30 27 29 34 39 43 45 47 53 55 53 55 55 55 57 62 61 56 56 54 53 57 57 54 53 51 47 40 40 40 39 36 35 37 38 39 42 44 45 47
32 29 28 26 28 33 38 40 41 43 48 54 56 53 52 55 58 58 56 64 70 66 62 59 60 58 57 51 51 48 45 47 45 40 40 41 43 45 46 48 47 48 52
23 22 21 26 36 40 44 46 50 54 57 58 63 62 54 54 57 58 61 61 64 75 74 67 66 67 62 57 52 51 51 48 45 41 38 36 39 44 50 56 59 60 64
18 15 22 27 29 36 43 49 60 67 69 69 70 66 62 58 56 60 61 62 62 65 76 77 69 67 66 64 56 54 50 50 49 46 44 41 36 39 43 47 51 56 57
14 20 19 20 28 35 38 50 61 71 79 80 75 68 61 57 53 55 61 60 56 58 69 74 73 60 55 65 66 52 53 52 47 46 41 36 37 38 42 41 39 41 45
15 11 14 20 28 36 45 55 60 60 61 66 69 65 61 59 56 55 54 55 54 53 62 69 68 57 54 58 51 46 50 49 45 44 38 34 34 36 37 40 44 44 44
2 6 15 27 35 41 47 47 51 55 61 64 59 56 57 56 57 59 60 55 53 48 56 62 54 57 53 68 50 42 57 49 40 32 28 33 32 40 43 48 50 49 49
7 17 25 29 33 28 29 37 40 44 45 44 44 45 46 52 55 58 63 58 51 55 45 49 46 58 56 56 54 49 41 46 44 34 30 33 39 45 42 46 45 46 47
17 25 28 28 26 31 35 35 41 43 42 42 43 47 48 49 50 54 59 60 54 53 49 38 41 55 59 51 53 50 19 28 35 44 37 38 39 39 41 46 49 43 37
20 20 21 27 35 40 40 40 41 42 44 44 45 49 53 54 55 54 55 55 52 49 50 31 32 41 50 54 54 55 56 50 17 20 33 38 44 43 47 43 47 44 37
24 27 32 37 36 35 36 35 39 41 46 49 51 57 62 64 64 62 61 52 49 44 43 37 25 23 30 39 45 44 42 39 38 35 30 41 44 52 50 42 39 40 40
26 31 35 43 40 35 34 37 42 43 50 56 60 66 70 71 69 65 69 57 45 43 38 38 23 28 22 27 33 37 34 27 25 26 28 44 50 49 42 39 34 30 28
Wind_Direction_500mb
175 176 175 164 153 136 125 97 218 206 203 178 120 81 87 129 167 189 190 190 192 190 189 188 187 183 183 179 178 175 178 194 202 172 182 193 187 175 160 143 75 106 134
168 173 173 160 151 137 109 59 71 195 209 210 208 235 165 145 180 202 219 213 202 197 196 196 197 198 198 197 196 200 209 229 238 241 224 212 204 201 195 184 154 163 202
172 177 168 157 139 118 88 21 14 360 265 237 231 240 244 233 215 217 216 212 212 209 207 207 206 208 208 210 213 215 226 245 255 251 237 224 219 216 212 215 222 246 254
196 175 165 151 130 108 77 20 10 5 0 336 286 252 255 255 254 242 235 229 224 222 221 222 223 222 223 223 224 226 231 238 241 246 244 233 228 227 227 230 243 252 265
184 205 166 138 114 101 61 11 15 11 1 350 336 313 289 277 271 261 252 246 243 240 238 235 232 233 234 236 240 244 248 253 255 258 255 252 242 237 236 237 248 253 259
337 122 154 143 136 72 46 26 6 355 343 339 325 316 308 299 294 283 271 261 254 252 250 247 244 240 240 240 243 245 244 243 244 249 248 248 248 242 241 241 250 263 256
66 117 159 169 162 37 6 356 335 335 333 328 325 311 304 304 300 290 282 275 269 263 259 255 251 250 250 252 253 251 249 247 245 246 248 250 249 245 241 241 248 259 258
96 98 127 158 175 333 343 344 329 325 322 320 314 311 309 299 297 295 288 278 272 269 268 267 264 260 256 256 256 256 258 259 260 260 259 259 258 252 246 241 249 255 256
99 132 134 157 16 360 347 333 323 315 312 312 312 314 311 306 305 300 294 287 281 276 272 270 269 268 268 264 263 262 262 263 265 266 266 264 263 261 255 249 251 254 261
97 131 162 173 31 12 357 342 321 305 300 300 300 306 311 308 308 308 297 290 286 282 278 275 271 272 272 270 267 264 263 263 264 269 268 266 262 260 260 257 259 260 261
111 102 90 66 42 20 9 348 331 318 298 301 289 290 291 288 288 295 291 287 286 280 276 274 272 268 267 269 270 268 268 268 270 271 271 270 267 261 262 268 270 266 258
111 104 87 66 21 352 338 328 320 315 313 312 299 291 296 291 289 291 284 277 282 281 274 269 264 259 259 265 274 275 279 278 270 271 275 283 273 265 260 273 275 266 260
112 99 75 37 10 352 342 337 326 331 332 328 318 311 303 295 287 285 283 274 275 280 278 270 262 261 261 262 264 270 279 283 280 280 279 288 286 259 260 276 282 269 265
109 81 69 62 55 55 41 29 18 8 1 350 338 325 316 312 297 286 279 276 265 272 272 274 268 259 260 262 265 270 273 275 280 286 283 285 283 273 271 275 277 275 273
103 86 76 66 61 49 38 33 25 13 3 356 346 334 325 317 309 300 286 275 266 263 265 267 270 267 267 270 273 273 275 272 275 278 278 280 279 278 281 283 280 279 278
85 77 65 46 32 22 18 15 6 358 350 343 345 340 328 316 314 306 295 284 275 263 260 264 264 268 267 271 269 264 270 270 274 276 281 274 272 277 280 282 282 282 284
97 76 49 24 16 4 359 356 352 348 345 342 340 336 330 320 313 309 307 297 280 270 265 261 262 264 260 264 263 262 261 264 271 274 284 283 279 276 276 278 277 276 275
87 62 39 23 0 350 344 341 339 339 340 341 341 339 333 327 316 310 307 303 300 276 266 262 263 267 255 254 259 261 259 261 268 269 277 275 282 289 287 288 287 283 280
87 46 28 5 347 337 334 335 332 331 330 331 336 339 338 335 332 318 308 303 300 288 268 263 260 268 259 249 254 255 258 259 261 269 273 281 288 290 293 294 296 292 284
60 32 350 338 335 338 334 331 328 329 331 336 335 332 331 331 333 330 321 308 302 288 273 262 258 256 257 247 245 260 255 251 259 264 272 286 286 292 293 292 292 294 294
169 285 325 341 338 331 331 340 343 345 339 333 333 328 328 334 333 332 330 324 310 299 283 265 252 243 247 247 247 244 250 249 254 261 275 295 296 294 293 294 292 290 287
298 338 342 337 335 341 345 347 347 342 341 342 339 343 333 331 335 336 332 328 318 311 292 267 253 240 238 239 241 234 241 244 241 248 270 288 294 297 300 302 298 293 290
336 335 333 332 335 331 331 333 331 329 331 336 345 345 343 340 331 330 333 332 326 318 318 276 251 246 244 235 235 230 216 244 263 266 266 287 288 293 304 314 314 305 304
354 349 344 337 329 324 325 323 324 326 328 328 331 331 334 333 336 336 328 328 330 322 318 315 262 242 248 247 234 229 240 246 251 275 278 281 290 300 313 313 321 321 322
10 7 356 344 330 320 319 316 313 313 315 317 319 318 320 323 329 332 332 322 321 325 316 297 291 244 228 230 227 220 217 231 243 259 271 285 290 300 309 313 308 317 330
4 353 345 337 329 326 324 326 323 316 314 312 312 311 312 314 319 322 327 318 309 311 310 306 282 270 249 227 216 218 234 245 269 263 272 284 293 301 311 311 309 303 316
Wind_Speed_850mb
24 17 15 12 9 6 6 2 1 4 4 3 3 4 5 6 7 8 12 14 15 18 21 22 25 26 21 17 18 15 11 7 4 3 4 6 9 9 8 5 2 2 3
22 20 17 14 9 6 3 2 1 2 4 5 3 1 1 2 3 6 9 11 16 19 22 22 25 25 20 17 15 11 6 4 5 6 8 11 13 13 11 6 2 3 3
19 19 19 14 11 7 4 4 4 2 2 4 6 6 5 5 5 8 9 12 15 19 21 22 24 27 23 20 18 16 12 9 8 9 11 15 18 19 17 11 5 4 7
14 18 16 14 9 7 6 5 7 7 7 6 5 6 8 8 8 9 11 13 16 19 21 22 24 27 27 25 23 22 19 17 15 14 15 18 22 25 23 19 14 13 13
5 9 15 10 7 8 7 7 8 8 9 9 9 8 8 10 10 12 13 15 17 20 22 24 26 27 27 26 26 25 23 21 19 19 19 21 25 29 30 28 24 24 23
15 6 7 8 6 5 5 4 6 6 7 8 9 10 11 12 13 14 16 19 20 22 23 26 28 28 28 28 28 27 26 25 26 26 25 26 29 31 34 35 32 34 34
5 12 10 7 4 1 4 7 8 9 9 10 10 12 14 16 16 17 18 21 25 26 27 27 29 32 32 32 30 30 29 28 28 28 27 29 31 34 39 41 39 35 37
11 9 6 4 2 3 8 11 13 13 14 14 14 16 18 19 19 22 23 24 27 30 31 31 32 33 33 34 34 34 33 33 34 34 31 34 34 35 39 46 43 42 41
21 15 8 6 1 10 12 14 15 16 17 19 20 21 23 25 26 28 30 31 32 33 34 34 34 35 35 34 34 35 35 37 41 40 36 35 36 39 40 46 49 48 44
11 9 6 3 8 14 16 16 17 23 23 23 22 24 28 29 33 34 37 38 37 39 40 38 36 34 36 36 35 35 36 38 41 41 39 38 36 39 44 45 49 53 50
13 16 13 8 19 23 25 23 25 24 27 31 30 29 33 35 38 36 38 42 42 43 44 43 42 37 34 37 39 38 38 40 40 40 40 39 39 37 39 39 41 47 53
24 23 18 15 15 24 30 28 26 27 27 31 36 38 43 45 45 44 43 44 46 47 47 46 41 39 38 37 30 30 33 34 35 34 31 32 38 36 32 34 41 49 51
24 22 18 18 21 22 18 21 25 28 30 32 36 44 49 51 52 52 49 47 47 48 48 50 48 45 39 35 30 30 30 27 25 29 33 31 29 27 29 31 32 35 39
20 20 23 32 29 28 28 28 30 32 34 36 41 46 49 52 56 59 57 53 52 48 49 52 52 51 47 44 40 38 37 35 28 31 35 34 31 30 35 36 33 32 35
27 34 34 30 27 29 34 39 43 45 47 53 55 53 55 55 55 57 62 61 56 56 54 53 57 57 54 53 51 47 40 40 40 39 36 35 37 38 39 42 44 45 47
32 29 28 26 28 33 38 40 41 43 48 54 56 53 52 55 58 58 56 64 70 66 62 59 60 58 57 51 51 48 45 47 45 40 40 41 43 45 46 48 47 48 52
23 22 21 26 36 40 44 46 50 54 57 58 63 62 54 54 57 58 61 61 64 75 74 67 66 67 62 57 52 51 51 48 45 41 38 36 39 44 50 56 59 60 64
18 15 22 27 29 36 43 49 60 67 69 69 70 66 62 58 56 60 61 62 62 65 76 77 69 67 66 64 56 54 50 50 49 46 44 41 36 39 43 47 51 56 57
14 20 19 20 28 35 38 50 61 71 79 80 75 68 61 57 53 55 61 60 56 58 69 74 73 60 55 65 66 52 53 52 47 46 41 36 37 38 42 41 39 41 45
15 11 14 20 28 36 45 55 60 60 61 66 69 65 61 59 56 55 54 55 54 53 62 69 68 57 54 58 51 46 50 49 45 44 38 34 34 36 37 40 44 44 44
2 6 15 27 35 41 47 47 51 55 61 64 59 56 57 56 57 59 60 55 53 48 56 62 54 57 53 68 50 42 57 49 40 32 28 33 32 40 43 48 50 49 49
7 17 25 29 33 28 29 37 40 44 45 44 44 45 46 52 55 58 63 58 51 55 45 49 46 58 56 56 54 49 41 46 44 34 30 33 39 45 42 46 45 46 47
17 25 28 28 26 31 35 35 41 43 42 42 43 47 48 49 50 54 59 60 54 53 49 38 41 55 59 51 53 50 19 28 35 44 37 38 39 39 41 46 49 43 37
20 20 21 27 35 40 40 40 41 42 44 44 45 49 53 54 55 54 55 55 52 49 50 31 32 41 50 54 54 55 56 50 17 20 33 38 44 43 47 43 47 44 37
24 27 32 37 36 35 36 35 39 41 46 49 51 57 62 64 64 62 61 52 49 44 43 37 25 23 30 39 45 44 42 39 38 35 30 41 44 52 50 42 39 40 40
26 31 35 43 40 35 34 37 42 43 50 56 60 66 70 71 69 65 69 57 45 43 38 38 23 28 22 27 33 37 34 27 25 26 28 44 50 49 42 39 34 30 28
Wind_Direction_850mb
175 176 175 164 153 136 125 97 218 206 203 178 120 81 87 129 167 189 190 190 192 190 189 188 187 183 183 179 178 175 178 194 202 172 182 193 187 175 160 143 75 106 134
168 173 173 160 151 137 109 59 71 195 209 210 208 235 165 145 180 202 219 213 202 197 196 196 197 198 198 197 196 200 209 229 238 241 224 212 204 201 195 184 154 163 202
172 177 168 157 139 118 88 21 14 360 265 237 231 240 244 233 215 217 216 212 212 209 207 207 206 208 208 210 213 215 226 245 255 251 237 224 219 216 212 215 222 246 254
196 175 165 151 130 108 77 20 10 5 0 336 286 252 255 255 254 242 235 229 224 222 221 222 223 222 223 223 224 226 231 238 241 246 244 233 228 227 227 230 243 252 265
184 205 166 138 114 101 61 11 15 11 1 350 336 313 289 277 271 261 252 246 243 240 238 235 232 233 234 236 240 244 248 253 255 258 255 252 242 237 236 237 248 253 259
337 122 154 143 136 72 46 26 6 355 343 339 325 316 308 299 294 283 271 261 254 252 250 247 244 240 240 240 243 245 244 243 244 249 248 248 248 242 241 241 250 263 256
66 117 159 169 162 37 6 356 335 335 333 328 325 311 304 304 300 290 282 275 269 263 259 255 251 250 250 252 253 251 249 247 245 246 248 250 249 245 241 241 248 259 258
96 98 127 158 175 333 343 344 329 325 322 320 314 311 309 299 297 295 288 278 272 269 268 267 264 260 256 256 256 256 258 259 260 260 259 259 258 252 246 241 249 255 256
99 132 134 157 16 360 347 333 323 315 312 312 312 314 311 306 305 300 294 287 281 276 272 270 269 268 268 264 263 262 262 263 265 266 266 264 263 261 255 249 251 254 261
97 131 162 173 31 12 357 342 321 305 300 300 300 306 311 308 308 308 297 290 286 282 278 275 271 272 272 270 267 264 263 263 264 269 268 266 262 260 260 257 259 260 261
111 102 90 66 42 20 9 348 331 318 298 301 289 290 291 288 288 295 291 287 286 280 276 274 272 268 267 269 270 268 268 268 270 271 271 270 267 261 262 268 270 266 258
111 104 87 66 21 352 338 328 320 315 313 312 299 291 296 291 289 291 284 277 282 281 274 269 264 259 259 265 274 275 279 278 270 271 275 283 273 265 260 273 275 266 260
112 99 75 37 10 352 342 337 326 331 332 328 318 311 303 295 287 285 283 274 275 280 278 270 262 261 261 262 264 270 279 283 280 280 279 288 286 259 260 276 282 269 265
109 81 69 62 55 55 41 29 18 8 1 350 338 325 316 312 297 286 279 276 265 272 272 274 268 259 260 262 265 270 273 275 280 286 283 285 283 273 271 275 277 275 273
103 86 76 66 61 49 38 33 25 13 3 356 346 334 325 317 309 300 286 275 266 263 265 267 270 267 267 270 273 273 275 272 275 278 278 280 279 278 281 283 280 279 278
85 77 65 46 32 22 18 15 6 358 350 343 345 340 328 316 314 306 295 284 275 263 260 264 264 268 267 271 269 264 270 270 274 276 281 274 272 277 280 282 282 282 284
97 76 49 24 16 4 359 356 352 348 345 342 340 336 330 320 313 309 307 297 280 270 265 261 262 264 260 264 263 262 261 264 271 274 284 283 279 276 276 278 277 276 275
87 62 39 23 0 350 344 341 339 339 340 341 341 339 333 327 316 310 307 303 300 276 266 262 263 267 255 254 259 261 259 261 268 269 277 275 282 289 287 288 287 283 280
87 46 28 5 347 337 334 335 332 331 330 331 336 339 338 335 332 318 308 303 300 288 268 263 260 268 259 249 254 255 258 259 261 269 273 281 288 290 293 294 296 292 284
60 32 350 338 335 338 334 331 328 329 331 336 335 332 331 331 333 330 321 308 302 288 273 262 258 256 257 247 245 260 255 251 259 264 272 286 286 292 293 292 292 294 294
169 285 325 341 338 331 331 340 343 345 339 333 333 328 328 334 333 332 330 324 310 299 283 265 252 243 247 247 247 244 250 249 254 261 275 295 296 294 293 294 292 290 287
298 338 342 337 335 341 345 347 347 342 341 342 339 343 333 331 335 336 332 328 318 311 292 267 253 240 238 239 241 234 241 244 241 248 270 288 294 297 300 302 298 293 290
336 335 333 332 335 331 331 333 331 329 331 336 345 345 343 340 331 330 333 332 326 318 318 276 251 246 244 235 235 230 216 244 263 266 266 287 288 293 304 314 314 305 304
354 349 344 337 329 324 325 323 324 326 328 328 331 331 334 333 336 336 328 328 330 322 318 315 262 242 248 247 234 229 240 246 251 275 278 281 290 300 313 313 321 321 322
10 7 356 344 330 320 319 316 313 313 315 317 319 318 320 323 329 332 332 322 321 325 316 297 291 244 228 230 227 220 217 231 243 259 271 285 290 300 309 313 308 317 330
4 353 345 337 329 326 324 326 323 316 314 312 312 311 312 314 319 322 327 318 309 311 310 306 282 270 249 227 216 218 234 245 269 263 272 284 293 301 311 311 309 303 316